Location: Maddington
(51.2000°N, 1.9167°W)
Time: 22:12:22
(UTC+00:00)

MOS 1 - Pass Details

Date: 18 September 2020
Orbit: 878 x 892 km, 99.1° (Epoch: 30 October)

Event Time Altitude Azimuth Distance (km) Brightness Sun altitude
Exits shadow 19:23:30 - 150° (SSE) 3,015 6.6 -11.5°
Reaches altitude 10° 19:24:42 10° 148° (SSE) 2,554 6.3 -11.7°
Maximum altitude 19:30:19 64° 69° (ENE) 984 4.3 -12.5°
Drops below altitude 10° 19:35:58 10° 349° (N) 2,573 7.1 -13.4°
Sets 19:38:24 0° 346° (NNW) 3,517 7.9 -13.7°
